Weather History for Constantine, Algeria

Change the Weather History Date:

Tuesday, February 26, 2013

  Actual Average Record
Temperature  
Mean Temperature 36 °F -  
Max Temperature 47 °F 58 °F - ()
Min Temperature 24 °F 40 °F - ()
Degree Days  
Heating Degree Days 30    
Moisture  
Dew Point 28 °F    
Average Humidity 70    
Maximum Humidity 93    
Minimum Humidity 36    
Precipitation  
Precipitation 0.00 in 0.08 in - ()
Sea Level Pressure  
Sea Level Pressure 30.07 in    
Wind  
Wind Speed 5 mph ()    
Max Wind Speed 14 mph    
Max Gust Speed -    
Visibility 6.0 miles    
Events      
T = Trace of Precipitation, MM = Missing Value Source: Averaged Metar Reports

Daily Weather History Graph

Daily Weather History Graph

Search for Another Location

Airport:

Trip Planner

Search our weather history database for the weather conditions in past years. The results will help you decide how hot, cold, wet, or windy it might be!

Date:

Astronomy

Feb. 26, 2013 Rise Set
Actual Time 7:07 AM CET 6:25 PM CET
Civil Twilight 6:41 AM CET 6:51 PM CET
Nautical Twilight 6:12 AM CET 7:21 PM CET
Astronomical Twilight 5:42 AM CET 7:51 PM CET
Moon 7:21 PM CET (2/26) 7:04 AM CET (2/26)
Length of Visible Light 12h 09m
Length of Day
11h 17m
Full, 100% of the Moon is Illuminated
Feb 26
Full
Mar 4
Last Quarter
Mar 11
New
Mar 19
First Quarter
Mar 27
Full

Hourly Weather History & Observations

Time (CET) Temp. Windchill Dew Point Humidity Pressure Visibility Wind Dir Wind Speed Gust Speed Precip Events Conditions
12:00 AM 35.6 °F 29.9 °F 30.2 °F 81% 30.04 in 6.2 mi NNW 6.9 mph - N/A   Mostly Cloudy
12:30 AM 35.6 °F - 30.2 °F 81% 30.04 in 6.2 mi Calm Calm - N/A   Mostly Cloudy
1:00 AM 31 °F - 26 °F 75% 30.10 in 6 mi West 5.8 mph - -   Partly Cloudy
1:00 AM 30.2 °F 24.3 °F 26.6 °F 86% 30.04 in 6.2 mi West 5.8 mph - N/A   Scattered Clouds
1:30 AM 30.2 °F 24.3 °F 26.6 °F 86% 30.04 in 6.2 mi West 5.8 mph - N/A   Scattered Clouds
2:00 AM 32.0 °F 26.4 °F 28.4 °F 87% 30.04 in 6.2 mi West 5.8 mph - N/A   Scattered Clouds
2:30 AM 32.0 °F 26.4 °F 28.4 °F 87% 30.04 in 6.2 mi West 5.8 mph - N/A   Scattered Clouds
3:00 AM 32.0 °F 26.4 °F 28.4 °F 87% 30.04 in 6.2 mi West 5.8 mph - N/A   Scattered Clouds
3:30 AM 32.0 °F - 28.4 °F 87% 30.04 in 6.2 mi Calm Calm - N/A   Scattered Clouds
4:00 AM 30 °F - 26 °F 81% 30.11 in 6 mi West 8.1 mph - -   Partly Cloudy
4:00 AM 30.2 °F 22.6 °F 26.6 °F 86% 30.04 in 6.2 mi West 8.1 mph - N/A   Scattered Clouds
4:30 AM 30.2 °F 22.6 °F 26.6 °F 86% 30.04 in 6.2 mi West 8.1 mph - N/A   Scattered Clouds
5:00 AM 30.2 °F 22.6 °F 26.6 °F 86% 30.04 in 6.2 mi West 8.1 mph - N/A   Scattered Clouds
5:30 AM 30.2 °F 22.6 °F 26.6 °F 86% 30.04 in 6.2 mi West 8.1 mph - N/A   Scattered Clouds
6:00 AM 28.4 °F - 24.8 °F 86% 30.04 in 6.2 mi Calm Calm - N/A   Scattered Clouds
6:30 AM 28.4 °F - 24.8 °F 86% 30.04 in 5.0 mi Calm Calm - N/A   Partly Cloudy
7:00 AM 26 °F - 22 °F 80% 30.14 in 4 mi Calm Calm - -   Scattered Clouds
7:00 AM 24.8 °F - 23.0 °F 93% 30.04 in 3.7 mi Calm Calm - N/A   Partly Cloudy
7:30 AM 28.4 °F - 24.8 °F 86% 30.04 in 3.7 mi Calm Calm - N/A   Partly Cloudy
8:00 AM 30.2 °F - 26.6 °F 86% 30.04 in 3.7 mi Calm Calm - N/A   Partly Cloudy
8:30 AM 35.6 °F - 30.2 °F 81% 30.04 in 5.0 mi Calm Calm - N/A   Partly Cloudy
9:00 AM 35.6 °F - 30.2 °F 81% 30.06 in 6.2 mi Calm Calm - N/A   Partly Cloudy
9:30 AM 37.4 °F 32.1 °F 30.2 °F 75% 30.06 in 6.2 mi WSW 6.9 mph - N/A   Partly Cloudy
10:00 AM 39 °F - 28 °F 54% 30.14 in 6 mi West 9.2 mph - -   Scattered Clouds
10:00 AM 39.2 °F 33.0 °F 28.4 °F 65% 30.06 in 6.2 mi West 9.2 mph - N/A   Partly Cloudy
10:30 AM 41.0 °F 34.7 °F 28.4 °F 61% 30.06 in 6.2 mi SW 10.4 mph - N/A   Partly Cloudy
11:00 AM 41.0 °F 34.7 °F 28.4 °F 61% 30.06 in 6.2 mi SW 10.4 mph - N/A   Partly Cloudy
11:30 AM 42.8 °F 36.6 °F 28.4 °F 57% 30.06 in 6.2 mi West 11.5 mph - N/A   Scattered Clouds
12:00 PM 42.8 °F 36.2 °F 26.6 °F 53% 30.06 in 6.2 mi WSW 12.7 mph - N/A   Scattered Clouds
12:30 PM 42.8 °F 36.6 °F 26.6 °F 53% 30.06 in 6.2 mi WSW 11.5 mph - N/A   Scattered Clouds
1:00 PM 45 °F - 27 °F 36% 30.13 in 6 mi West 11.5 mph - -   Partly Cloudy
1:00 PM 44.6 °F 38.8 °F 26.6 °F 49% 30.06 in 6.2 mi West 11.5 mph - N/A   Scattered Clouds
1:30 PM 46.4 °F 40.4 °F 26.6 °F 46% 30.04 in 6.2 mi West 13.8 mph - N/A   Scattered Clouds
2:00 PM 46.4 °F 41.1 °F 23.0 °F 40% 30.04 in 6.2 mi West 11.5 mph - N/A   Scattered Clouds
2:30 PM 46.4 °F 41.5 °F 23.0 °F 40% 30.04 in 6.2 mi NNW 10.4 mph - N/A   Scattered Clouds
3:00 PM 44.6 °F 38.1 °F 28.4 °F 53% 30.04 in 6.2 mi NNW 13.8 mph - N/A   Mostly Cloudy
3:30 PM 46.4 °F 41.5 °F 28.4 °F 50% 30.04 in 6.2 mi North 10.4 mph - N/A   Mostly Cloudy
4:00 PM 46 °F - 28 °F 36% 30.10 in 6 mi NNW 9.2 mph - -   Mostly Cloudy
4:00 PM 46.4 °F 41.9 °F 28.4 °F 50% 30.04 in 6.2 mi NNW 9.2 mph - N/A   Mostly Cloudy
4:30 PM 44.6 °F 38.8 °F 28.4 °F 53% 30.04 in 6.2 mi NNW 11.5 mph - N/A   Mostly Cloudy
5:00 PM 44.6 °F 38.8 °F 26.6 °F 49% 30.04 in 6.2 mi NW 11.5 mph - N/A   Scattered Clouds
5:30 PM 42.8 °F 37.5 °F 26.6 °F 53% 30.06 in 6.2 mi NW 9.2 mph - N/A   Scattered Clouds
6:00 PM 42.8 °F 37.5 °F 28.4 °F 57% 30.04 in 6.2 mi NW 9.2 mph - N/A   Scattered Clouds
6:30 PM 41.0 °F 36.4 °F 28.4 °F 61% 30.06 in 6.2 mi NW 6.9 mph - N/A   Scattered Clouds
7:00 PM 39 °F - 30 °F 59% 30.17 in 6 mi North 5.8 mph - -   Mostly Cloudy
7:00 PM 39.2 °F 35.0 °F 30.2 °F 70% 30.06 in 6.2 mi North 5.8 mph - N/A   Scattered Clouds
7:30 PM 39.2 °F 35.0 °F 30.2 °F 70% 30.09 in 6.2 mi NNW 5.8 mph - N/A   Scattered Clouds
8:00 PM 37.4 °F 32.8 °F 30.2 °F 75% 30.09 in 6.2 mi North 5.8 mph - N/A   Scattered Clouds
8:30 PM 37.4 °F 34.9 °F 30.2 °F 75% 30.09 in 6.2 mi ENE 3.5 mph - N/A   Scattered Clouds
9:00 PM 33.8 °F - 28.4 °F 81% 30.09 in 6.2 mi Calm Calm - N/A   Scattered Clouds
9:30 PM 33.8 °F 29.6 °F 28.4 °F 81% 30.09 in 6.2 mi East 4.6 mph - N/A   Scattered Clouds
10:00 PM 34 °F - 29 °F 73% 30.21 in 6 mi Calm Calm - -   Partly Cloudy
10:00 PM 33.8 °F - 28.4 °F 81% 30.12 in 6.2 mi Calm Calm - N/A   Partly Cloudy
10:30 PM 33.8 °F - 28.4 °F 81% 30.12 in 6.2 mi Calm Calm - N/A   Partly Cloudy
11:00 PM 33.8 °F - 28.4 °F 81% 30.12 in 6.2 mi Calm Calm - N/A   Partly Cloudy
11:30 PM 33.8 °F 29.6 °F 28.4 °F 81% 30.12 in 6.2 mi SE 4.6 mph - N/A   Partly Cloudy